Simultaneous Nadir Overpasses (SNOs) Predictions

Prediction of SNOs between FY3D and NOAA-19 Satellite Orbit:

Table of predicted SNOs for the next 14.0 days since TLE Epoch: 10/24/2020
Index Date (FY3D) Time (FY3D) Lat,Lon (FY3D) SZA (FY3D ) Date (NOAA-19) Time (NOAA-19) Lat,Lon (NOAA-19) SZA (NOAA-19 ) Distance(km) Time Diff (sec)
1 10/29/2020 11:05:32 -79.05, 164.32 86.32 10/29/2020 11:04:24 -79.04, 164.20 86.30 2.64 68
2 10/29/2020 11:56:17 79.06, -28.48 93.72 10/29/2020 11:55:20 79.05, -28.39 93.73 2.17 57
3 10/29/2020 12:47:01 -79.05, 138.96 86.30 10/29/2020 12:46:24 -79.05, 138.84 86.27 2.68 37
4 10/29/2020 13:37:46 79.06, -53.85 93.74 10/29/2020 13:37:20 79.07, -53.76 93.75 1.94 26
5 10/29/2020 14:28:31 -79.08, 113.34 86.22 10/29/2020 14:28:24 -79.07, 113.47 86.24 2.89 7
6 10/29/2020 15:19:15 79.06, -79.21 93.76 10/29/2020 15:19:20 79.09, -79.13 93.78 3.12 5
7 10/29/2020 16:10:00 -79.08, 87.98 86.20 10/29/2020 16:10:24 -79.09, 88.10 86.21 2.66 24
8 10/29/2020 17:00:45 79.10,-104.83 93.84 10/29/2020 17:01:21 79.07,-104.77 93.80 3.20 36
9 10/29/2020 17:51:29 -79.08, 62.62 86.18 10/29/2020 17:52:25 -79.07, 62.47 86.20 3.19 56
10 10/29/2020 18:42:14 79.09,-130.19 93.86 10/29/2020 18:43:21 79.08,-130.14 93.82 1.54 67
